Location: Bord�res
(43.2000°N, 0.2167°W)
Time: 14:40:02
(UTC+00:00)

SL-08 RB Rocket - Pass Details

Date: 03 March 2021
Orbit: 647 x 683 km, 97.8° (Epoch: 14 April)

Event Time Altitude Azimuth Distance (km) Brightness Sun altitude
Rises 18:49:35 0° 153° (SSE) 2,962 6.8 -11.2°
Reaches altitude 10° 18:51:48 10° 149° (SSE) 2,060 5.9 -11.6°
Maximum altitude 18:56:11 53° 73° (ENE) 811 3.8 -12.4°
Drops below altitude 10° 19:00:38 10° 357° (N) 2,096 6.4 -13.2°
Sets 19:02:55 0° 353° (N) 3,020 7.2 -13.6°
